When you browse on this site, cookies collect data to enhance your experience and personalize the content and advertising you see.
Visit our Privacy Policy to learn more. By continuing to use the site, you agree to this use of cookies and data.
  • In United Kingdom
  • List of Countries
  • For 7 days
  • Water Temperature
  • Satellite Maps
  • Weather Map
  • Weather Widgets
  • user-avatar
    Login

    Hourly Weather Aberdour

    Today, 21 February, Thursday

    Time Temperature Precipitation Wind Pressure Humidity
    00:00 +8°C° 0 mm 4 mps 748 mmHg 93%
    01:00 +8°C° 0 mm 4 mps 748 mmHg 93%
    02:00 +10°C° 0 mm 4 mps 749 mmHg 93%
    03:00 +10°C° 0 mm 4 mps 749 mmHg 93%
    04:00 +10°C° 0 mm 4 mps 749 mmHg 93%
    05:00 +10°C° 0 mm 4 mps 750 mmHg 94%
    06:00 +10°C° 0 mm 2 mps 750 mmHg 94%
    07:00 +10°C° 0 mm 3 mps 751 mmHg 94%
    08:00 +10°C° 0 mm 3 mps 751 mmHg 93%
    09:00 +11°C° 0 mm 4 mps 752 mmHg 92%
    10:00 +11°C° 0 mm 4 mps 752 mmHg 89%
    11:00 +12°C° 0 mm 4 mps 753 mmHg 87%
    12:00 +12°C° 0 mm 5 mps 754 mmHg 84%
    13:00 +12°C° 0 mm 5 mps 754 mmHg 83%
    14:00 +12°C° 0 mm 5 mps 754 mmHg 81%
    15:00 +12°C° 0 mm 5 mps 754 mmHg 79%
    16:00 +10°C° 0 mm 5 mps 755 mmHg 82%
    17:00 +10°C° 0 mm 5 mps 755 mmHg 84%
    18:00 +10°C° 0 mm 4 mps 756 mmHg 86%
    19:00 +8°C° 0 mm 4 mps 756 mmHg 87%
    20:00 +8°C° 0 mm 4 mps 756 mmHg 88%
    21:00 +8°C° 0 mm 3 mps 757 mmHg 88%
    22:00 +8°C° 0 mm 3 mps 757 mmHg 88%
    23:00 +8°C° 0 mm 3 mps 757 mmHg 88%

    Tomorrow, 22 February, Friday

    Time Temperature Precipitation Wind Pressure Humidity
    00:00 +8°C° 0 mm 3 mps 758 mmHg 88%
    01:00 +8°C° 0 mm 3 mps 758 mmHg 87%
    02:00 +8°C° 0 mm 3 mps 758 mmHg 87%
    03:00 +8°C° 0 mm 3 mps 758 mmHg 87%
    04:00 +8°C° 0 mm 3 mps 759 mmHg 84%
    05:00 +7°C° 0 mm 4 mps 759 mmHg 82%
    06:00 +7°C° 0 mm 4 mps 759 mmHg 80%
    07:00 +8°C° 0 mm 4 mps 759 mmHg 76%
    08:00 +8°C° 0 mm 5 mps 760 mmHg 72%
    09:00 +9°C° 0 mm 6 mps 760 mmHg 68%
    10:00 +10°C° 0 mm 6 mps 760 mmHg 63%
    11:00 +13°C° 0 mm 6 mps 760 mmHg 58%
    12:00 +14°C° 0 mm 6 mps 761 mmHg 54%
    13:00 +14°C° 0 mm 6 mps 761 mmHg 54%
    14:00 +14°C° 0 mm 5 mps 761 mmHg 54%
    15:00 +14°C° 0 mm 4 mps 760 mmHg 55%
    16:00 +13°C° 0 mm 4 mps 760 mmHg 58%
    17:00 +11°C° 0 mm 3 mps 760 mmHg 62%
    18:00 +10°C° 0 mm 3 mps 760 mmHg 65%
    19:00 +10°C° 0 mm 3 mps 760 mmHg 68%
    20:00 +9°C° 0 mm 3 mps 760 mmHg 70%
    21:00 +9°C° 0 mm 3 mps 760 mmHg 72%
    22:00 +9°C° 0 mm 3 mps 760 mmHg 74%
    23:00 +9°C° 0 mm 3 mps 760 mmHg 75%

    Day after tomorrow, 23 February, Saturday

    Time Temperature Precipitation Wind Pressure Humidity
    00:00 +9°C° 0 mm 3 mps 760 mmHg 77%
    01:00 +8°C° 0 mm 3 mps 760 mmHg 76%
    02:00 +8°C° 0 mm 3 mps 759 mmHg 75%
    03:00 +8°C° 0 mm 3 mps 759 mmHg 73%
    04:00 +8°C° 0 mm 3 mps 759 mmHg 73%
    05:00 +8°C° 0 mm 3 mps 759 mmHg 72%
    06:00 +8°C° 0 mm 3 mps 759 mmHg 71%
    07:00 +7°C° 0 mm 4 mps 759 mmHg 71%
    08:00 +7°C° 0 mm 4 mps 759 mmHg 70%
    09:00 +8°C° 0 mm 4 mps 759 mmHg 69%
    10:00 +9°C° 0 mm 5 mps 759 mmHg 66%
    11:00 +10°C° 0 mm 5 mps 759 mmHg 64%
    12:00 +11°C° 0 mm 6 mps 759 mmHg 61%
    13:00 +11°C° 0 mm 6 mps 759 mmHg 63%
    14:00 +12°C° 0 mm 5 mps 759 mmHg 65%
    15:00 +12°C° 0 mm 5 mps 759 mmHg 67%
    16:00 +10°C° 0 mm 5 mps 760 mmHg 72%
    17:00 +11°C° 0 mm 4 mps 760 mmHg 76%
    18:00 +10°C° 0 mm 4 mps 761 mmHg 81%
    19:00 +10°C° 0 mm 4 mps 761 mmHg 84%
    20:00 +10°C° 0 mm 3 mps 762 mmHg 87%
    21:00 +9°C° 0 mm 3 mps 762 mmHg 90%
    22:00 +9°C° 0 mm 3 mps 762 mmHg 91%
    23:00 +8°C° 0 mm 2 mps 763 mmHg 93%

    24 February, Sunday

    Time Temperature Precipitation Wind Pressure Humidity
    00:00 +9°C° 0 mm 1 mps 763 mmHg 95%
    01:00 +9°C° 0 mm 1 mps 763 mmHg 95%
    02:00 +8°C° 0 mm 1 mps 763 mmHg 95%
    03:00 +7°C° 0 mm 0 mps 764 mmHg 95%
    04:00 +7°C° 0 mm 0 mps 763 mmHg 95%
    05:00 +7°C° 0 mm 0 mps 763 mmHg 95%
    06:00 +6°C° 0 mm 0 mps 763 mmHg 95%
    07:00 +8°C° 0 mm 1 mps 763 mmHg 94%
    08:00 +9°C° 0 mm 1 mps 763 mmHg 93%
    09:00 +9°C° 0 mm 1 mps 763 mmHg 92%
    10:00 +10°C° 0 mm 1 mps 763 mmHg 87%
    11:00 +11°C° 0 mm 1 mps 763 mmHg 82%
    12:00 +13°C° 0 mm 1 mps 763 mmHg 78%
    13:00 +13°C° 0 mm 1 mps 763 mmHg 75%
    14:00 +14°C° 0 mm 1 mps 763 mmHg 72%
    15:00 +14°C° 0 mm 1 mps 763 mmHg 69%
    16:00 +13°C° 0 mm 1 mps 763 mmHg 73%
    17:00 +12°C° 0 mm 1 mps 762 mmHg 78%
    18:00 +11°C° 0 mm 1 mps 762 mmHg 82%
    19:00 +9°C° 0 mm 2 mps 763 mmHg 84%
    20:00 +9°C° 0 mm 2 mps 763 mmHg 86%
    21:00 +8°C° 0 mm 3 mps 763 mmHg 87%
    22:00 +8°C° 0 mm 3 mps 764 mmHg 89%
    23:00 +8°C° 0 mm 3 mps 764 mmHg 90%

    25 February, Monday

    Time Temperature Precipitation Wind Pressure Humidity
    00:00 +8°C° 0 mm 3 mps 764 mmHg 91%
    01:00 +8°C° 0 mm 2 mps 764 mmHg 92%
    02:00 +8°C° 0 mm 2 mps 764 mmHg 92%
    03:00 +8°C° 0 mm 2 mps 764 mmHg 92%
    04:00 +8°C° 0 mm 2 mps 764 mmHg 93%
    05:00 +8°C° 0 mm 2 mps 764 mmHg 93%
    06:00 +8°C° 0 mm 2 mps 764 mmHg 94%
    07:00 +8°C° 0 mm 3 mps 764 mmHg 92%
    08:00 +9°C° 0 mm 3 mps 764 mmHg 90%
    09:00 +10°C° 0 mm 3 mps 764 mmHg 89%
    10:00 +11°C° 0 mm 3 mps 765 mmHg 82%
    11:00 +13°C° 0 mm 4 mps 765 mmHg 75%
    12:00 +14°C° 0 mm 4 mps 765 mmHg 69%
    13:00 +15°C° 0 mm 4 mps 764 mmHg 67%
    14:00 +15°C° 0 mm 4 mps 764 mmHg 66%
    15:00 +15°C° 0 mm 4 mps 764 mmHg 65%
    16:00 +14°C° 0 mm 3 mps 764 mmHg 70%
    17:00 +12°C° 0 mm 3 mps 764 mmHg 76%
    18:00 +12°C° 0 mm 2 mps 764 mmHg 82%
    19:00 +10°C° 0 mm 2 mps 764 mmHg 83%
    20:00 +10°C° 0 mm 2 mps 764 mmHg 85%
    21:00 +9°C° 0 mm 2 mps 764 mmHg 86%
    22:00 +9°C° 0 mm 2 mps 764 mmHg 86%
    23:00 +9°C° 0 mm 2 mps 764 mmHg 86%

    26 February, Tuesday

    Time Temperature Precipitation Wind Pressure Humidity
    00:00 +8°C° 0 mm 2 mps 764 mmHg 86%
    01:00 +9°C° 0 mm 1 mps 764 mmHg 85%
    02:00 +9°C° 0 mm 1 mps 763 mmHg 85%
    03:00 +9°C° 0 mm 1 mps 763 mmHg 85%
    04:00 +9°C° 0 mm 1 mps 763 mmHg 86%
    05:00 +8°C° 0 mm 1 mps 763 mmHg 86%
    06:00 +8°C° 0 mm 1 mps 762 mmHg 86%
    07:00 +9°C° 0 mm 1 mps 762 mmHg 84%
    08:00 +9°C° 0 mm 1 mps 762 mmHg 82%
    09:00 +10°C° 0 mm 1 mps 762 mmHg 80%
    10:00 +10°C° 0 mm 2 mps 762 mmHg 73%
    11:00 +12°C° 0 mm 2 mps 762 mmHg 66%
    12:00 +14°C° 0 mm 2 mps 762 mmHg 59%
    13:00 +14°C° 0 mm 2 mps 761 mmHg 57%
    14:00 +15°C° 0 mm 1 mps 761 mmHg 55%
    15:00 +15°C° 0 mm 1 mps 761 mmHg 53%
    16:00 +14°C° 0 mm 1 mps 760 mmHg 58%
    17:00 +12°C° 0 mm 1 mps 760 mmHg 62%
    18:00 +11°C° 0 mm 1 mps 760 mmHg 67%
    19:00 +10°C° 0 mm 1 mps 760 mmHg 69%
    20:00 +10°C° 0 mm 1 mps 760 mmHg 72%
    21:00 +9°C° 0 mm 1 mps 759 mmHg 74%
    22:00 +9°C° 0 mm 1 mps 759 mmHg 76%
    23:00 +9°C° 0 mm 1 mps 759 mmHg 78%
    Show more